Tracking 33190 objects as of 10-Feb-2026
HD Live streaming from Space Station
objects crossing your sky now

NMTSAT


NMTSAT is no longer on orbit
NMTSAT is classified as:


NORAD ID: 43862
Int'l Code: 2018-104P
Perigee: N/A
Apogee: N/A
Inclination: N/A
Period: N/A
Semi major axis: N/A
RCS: N/A
Launch date: December 16, 2018
Source: United States (US)
Launch site: Rocket Lab Launch Complex (RLLC)
Decay date: 2023-11-01

Uplink (MHz):
Downlink (MHz): 148.800
Beacon (MHz):
Mode: 9600bps GFSK
Call sign:
Status: Reentered

Your satellite tracking list
Your tracking list is empty




NASA's NSSDC Master Catalog

Two Line Element Set (TLE):
1 43862U 18104P   23301.84096164  .02084862  39420-2  24983-2 0  9992
2 43862  84.9969  69.7115 0006559 256.3161 103.7398 16.09362411271710
Source of the keplerian elements: Caltech